Back to catalog

FENGYUN 1C DEB

AliveSSO
NORAD 30395·DEBRIS·🇨🇳 China

Launched May 10, 1999 from Taiyuan Satellite Launch Center

Loading…

Next Passes (next 24 hours)

TLE

FreshSource: Space-Track

Epoch: Sep 14, 2026, 06:38 UTC

1 30395U 99025ADJ 26257.27676222  .00000414  00000-0  29471-3 0  9996
2 30395  98.9212 269.8595 0159345 346.8476  74.0450 13.97035155998704

Track FENGYUN 1C DEB in real time with AllMySat

Download on the App Store